map of ORN home
Great Circle Mapper logo
ORN - Airport
Location
City:  Oran, Algeria
Name:Es SÚnia
ICAO / IATA:DAOO / ORN

Details
Type:Airport (Aerodrome, Airfield)
Latitude:35░37'38"N (35.627222)
Longitude:0░36'41"W (-0.611388)
Elevation:299 ft (91 m)
Variation:0.13░W (WMM2015 magnetic declination)
0.11░ annual change
Runways:2
Longest:10039 × 148 ft (3060 × 45 m)

Time
Time Zone:UTC+1
Local Time:

Weather
METAR:DAOO 271830Z 24010KT CAVOK 16/12 Q1024
TAF:DAOO 270500Z 2706/2806 25015KT 8000 FEW016 SCT030 PROB30
TEMPO 2702/2706 RA SCT016
TEMPO 2704/2706 4000 BR
BECMG 2712/2714 9999 FEW030
BECMG 2718/2720 25008KT CAVOK
BECMG 2800/2802 25008KT FEW033 PROB40
TEMPO 2804/2806 4000 BR FEW016

Related Locations
Nearby:
Farthest:NZOP: 12232 mi / 19686 km
Opotiki, NZ

Find:

   beyond  
but within

Other Information
Maps:
NOTAMs:
Links:
Sources:

  
flag of Algeria   

Sectional Chart

Flight Planning
at skyvector.com

Satellite Image

Google Maps Satellite View

 

Copyright © 2004-2015 Karl L. Swartz. All rights reserved.
The Great Circle Mapper name and logo are trademarks of the Great Circle Mapper.
All other trademarks mentioned herein belong to their respective owners.
Please see credits for attibutions and further copyright information.

  Follow gcmap on Facebook Follow gcmap on Twitter Follow gcmap on Google+

hCard Microformat

Geo Microformat